Location: Unspecified
(52.4292°N, 19.3359°E)
Time: 13:57:27
(UTC+02:00)

deb Explorer IX - Pass Details

Date: 27 May 2024
Orbit: 510 x 885 km, 38.7° (Epoch: 16 June)

Event Time Altitude Azimuth Distance (km) Brightness Sun altitude
Rises 19:47:33 0° 210° (SSW) 3,297 ? 7.2°
Reaches altitude 10° 19:52:09 10° 176° (S) 2,265 ? 6.6°
Maximum altitude 19:53:34 11° 161° (SSE) 2,163 ? 6.4°
Drops below altitude 10° 19:54:56 10° 145° (SE) 2,198 ? 6.2°
Sets 19:59:08 0° 110° (ESE) 3,004 ? 5.6°
